sat.trackr.live / text

‹ back to catalog

LEMUR-2-LIA-MARTIN

NORAD 63248 · 2025-052AQ

PAYLOAD ACTIVE UNKNOWN

§ Identity

Operator
Country
US
Launch date
2025-03-15
Launch site
AFWTR
Launch vehicle
Mass (kg)
RCS (m²)

Purposes: earth_obs

External: N2YO · Heavens-Above · Gunter

§ Orbital elements

Epoch: 2026-09-19T23:37:22.330272Z

Period
96.10 min
Inclination
97.6741°
Eccentricity
0.0001876
Mean motion
14.98464251 rev/d
Perigee alt
570.3 km
Apogee alt
572.9 km
Semi-major
6,949.8 km
B*
2.9463e-4
RAAN
153.9240°
Arg perigee
180.9896°
Mean anomaly
179.1324°
Rev number
8,287

§ Raw data

LEMUR-2-LIA-MARTIN1 63248U 25052AQ  26262.98428623  .00003463  00000+0  29463-3 0  99992 63248  97.6741 153.9240 0001876 180.9896 179.1324 14.98464251 82872

JSON: /api/v1/satellites/63248 · /tle

For live sub-satellite position, see the globe view (requires WebGL).

§ Visibility from observer

Set your observer location to see the next 7 days of passes ≥ 10°. The values pass through the URL so the page stays shareable.

No JS? Fill the form by hand. The geolocation button needs JavaScript.